Location: College Park
(38.9810°N, 76.9370°W)
Time: 04:37:42
(UTC-05:00)

OTV 5 (USA 277) - Pass Details

Date: 03 January 2018
Orbit: 404 x 417 km, 43.0° (Epoch: 07 September)

Event Time Altitude Azimuth Distance (km) Brightness Sun altitude
Exits shadow 05:18:08 26° 56° (NE) 830 ? -24.3°
Drops below altitude 10° 05:19:47 10° 66° (ENE) 1,457 ? -24.0°
Sets 05:21:54 0° 70° (ENE) 2,318 ? -23.6°
